Terug naar catalogus

STARLINK-5119

ActiefCommunicatieVLEO
NORAD 53986·PAYLOAD·🇺🇸 United States

Gelanceerd Oct 5, 2022 vanaf Vandenberg Space Force Base

Loading…

Volgende Passages (komende 24 uur)

TLE

VersSource: CelesTrak SupGP

Epoch: Sep 15, 2026, 03:05 UTC

1 53986C 22125Y   26258.12895833 -.00031077  00000+0 -99884-3 0  2583
2 53986  53.1602  60.0722 0001296  71.6540  61.0442 15.31734211    14

Volg STARLINK-5119 in realtime met AllMySat

Download on the App Store